period_start,C,m1,H,J0,J1,J2,J3,J4,J5,JA,JB,JC,JD,JJ,JK,JN,#
2017-02-18 00:03:34,0.51,14.57,1.00,19.28,22.72,26.58,14.79,54.69,1012.54,2042.98,918.42,1125.45,1259.90,600.22,601.35,31.07,0000 0000 0000 0000 000000
2017-02-18 00:08:35,0.50,14.60,1.00,19.26,22.72,26.66,14.72,54.73,1012.24,2042.97,916.68,1124.07,1258.35,599.59,600.75,31.12,0000 0000 0000 0000 000000
2017-02-18 00:13:36,0.55,14.63,1.00,19.24,22.70,26.60,14.71,54.82,1012.22,2042.96,914.85,1122.68,1256.73,600.00,601.11,31.17,0000 0000 0000 0000 000000
2017-02-18 00:18:38,0.50,14.65,1.00,19.24,22.70,26.61,14.69,54.76,1012.22,2042.97,913.04,1121.29,1255.12,599.68,600.89,31.22,0000 0000 0000 0000 000000
2017-02-18 00:23:39,0.52,14.68,1.00,19.23,22.69,26.62,14.78,54.77,1012.22,2042.98,911.27,1119.86,1253.51,599.85,600.94,31.27,0000 0000 0000 0000 000000
2017-02-18 00:28:40,0.56,14.71,1.00,19.22,22.69,26.64,14.81,54.97,1012.22,2042.98,909.42,1118.41,1251.80,600.02,601.24,31.32,0000 0000 0000 0000 000000
2017-02-18 00:33:42,0.57,14.73,1.00,19.24,22.69,26.64,14.74,55.59,1012.22,2042.97,907.52,1116.83,1250.12,599.80,600.96,31.37,0000 0000 0000 0000 000000
2017-02-18 00:38:43,0.56,14.76,1.00,19.23,22.67,26.60,14.77,55.08,1012.22,2042.99,905.65,1115.38,1248.40,600.06,601.14,31.42,0000 0000 0000 0000 000000
2017-02-18 00:43:44,0.57,14.79,1.00,19.23,22.67,26.58,14.74,54.96,1012.22,2042.98,903.80,1113.83,1246.62,599.96,601.08,31.47,0000 0000 0000 0000 000000
2017-02-18 00:48:45,0.54,14.82,1.00,19.23,22.67,26.58,14.86,54.75,1012.22,2042.98,902.00,1112.41,1244.87,600.00,601.12,31.52,0000 0000 0000 0000 000000
2017-02-18 00:53:47,0.52,14.85,1.00,19.23,22.67,26.64,14.83,54.63,1012.22,2042.99,900.25,1110.88,1243.29,600.20,601.33,31.57,0000 0000 0000 0000 000000
2017-02-18 00:58:48,0.54,14.87,1.00,19.22,22.67,26.62,14.77,54.58,1012.23,2042.99,898.44,1109.51,1241.63,599.93,601.07,31.62,0000 0000 0000 0000 000000
2017-02-18 01:03:49,0.54,14.90,1.00,19.20,22.67,26.62,14.72,54.63,1012.25,2042.99,896.63,1108.03,1239.95,599.87,601.04,31.67,0000 0000 0000 0000 000000
2017-02-18 01:08:51,0.54,14.93,1.00,19.21,22.67,26.69,14.82,54.69,1012.24,2042.99,894.92,1106.56,1238.40,599.97,601.16,31.72,0000 0000 0000 0000 000000
2017-02-18 01:13:52,0.51,14.95,1.00,19.19,22.67,26.63,14.86,54.69,1012.27,2042.99,893.09,1105.17,1236.83,600.22,601.51,31.77,0000 0000 0000 0000 000000
2017-02-18 01:18:53,0.50,14.98,1.00,19.19,22.66,26.59,14.78,54.77,1012.23,2042.99,891.44,1103.86,1235.31,600.03,601.09,31.82,0000 0000 0000 0000 000000
2017-02-18 01:23:54,0.56,15.01,1.00,19.21,22.65,26.60,14.84,54.91,1012.23,2042.99,889.69,1102.54,1233.75,599.92,601.13,31.87,0000 0000 0000 0000 000000
2017-02-18 01:28:55,0.47,15.03,1.00,19.19,22.65,26.56,14.83,54.85,1012.29,2042.99,888.01,1101.13,1232.24,600.16,601.32,31.92,0000 0000 0000 0000 000000
2017-02-18 01:33:57,0.55,15.06,1.00,19.19,22.64,26.54,14.77,54.86,1012.22,2042.99,886.30,1099.76,1230.66,600.11,601.22,31.97,0000 0000 0000 0000 000000
2017-02-18 01:38:58,0.53,15.09,1.00,19.18,22.64,26.56,14.77,54.82,1012.22,2042.99,884.51,1098.42,1229.04,599.79,601.09,32.03,0000 0000 0000 0000 000000
2017-02-18 01:43:59,0.50,15.11,1.00,19.17,22.64,26.56,14.81,54.94,1012.13,2042.99,882.79,1097.13,1227.58,599.96,601.25,32.08,0000 0000 0000 0000 000000
2017-02-18 01:49:01,0.56,15.14,1.00,19.16,22.63,26.59,14.73,55.07,1011.78,2042.99,881.06,1095.71,1225.97,599.73,600.79,32.13,0000 0000 0000 0000 000000
2017-02-18 01:54:02,0.54,15.17,1.00,19.16,22.62,26.58,14.76,54.97,1011.76,2043.00,879.22,1094.21,1224.28,600.07,601.07,32.18,0000 0000 0000 0000 000000
2017-02-18 01:59:03,0.58,15.20,1.00,19.16,22.62,26.62,14.73,55.14,1011.85,2043.00,877.30,1092.72,1222.58,600.16,601.18,32.23,0000 0000 0000 0000 000000
2017-02-18 02:04:05,0.52,15.22,1.00,19.14,22.62,26.55,14.77,54.93,1012.12,2043.00,875.69,1091.35,1221.02,599.89,601.18,32.28,0000 0000 0000 0000 000000
2017-02-18 02:09:06,0.54,15.25,1.00,19.13,22.62,26.51,14.75,54.79,1012.21,2043.00,873.92,1089.92,1219.48,599.86,601.18,32.33,0000 0000 0000 0000 000000
2017-02-18 02:14:07,0.52,15.28,1.00,19.11,22.60,26.55,14.76,54.90,1012.12,2043.00,872.25,1088.58,1217.88,600.12,601.38,32.38,0000 0000 0000 0000 000000
2017-02-18 02:19:09,0.50,15.31,1.00,19.10,22.60,26.54,14.85,54.94,1011.92,2043.00,870.53,1087.32,1216.39,600.03,601.42,32.43,0000 0000 0000 0000 000000
2017-02-18 02:24:10,0.49,15.33,1.00,19.11,22.59,26.48,14.78,54.90,1011.81,2043.00,868.79,1086.14,1214.94,599.84,600.86,32.48,0000 0000 0000 0000 000000
2017-02-18 02:29:11,0.50,15.36,1.00,19.10,22.59,26.49,14.75,55.01,1011.88,2043.00,867.22,1084.81,1213.58,599.73,600.98,32.53,0000 0000 0000 0000 000000
2017-02-18 02:34:13,0.54,15.38,1.00,19.10,22.59,26.50,14.74,54.87,1011.87,2043.00,865.50,1083.47,1212.00,599.58,600.69,32.58,0000 0000 0000 0000 000000
2017-02-18 02:39:14,0.50,15.41,1.00,19.11,22.58,26.47,14.75,54.83,1011.85,2043.00,863.85,1082.14,1210.50,599.88,601.02,32.63,0000 0000 0000 0000 000000
2017-02-18 02:44:15,0.56,15.44,1.00,19.09,22.57,26.48,14.76,54.84,1011.76,2043.00,862.09,1080.79,1208.98,600.01,601.15,32.68,0000 0000 0000 0000 000000
2017-02-18 02:49:17,0.50,15.46,1.00,19.09,22.57,26.46,14.75,55.02,1011.74,2043.01,860.44,1079.54,1207.54,599.91,601.02,32.73,0000 0000 0000 0000 000000
2017-02-18 02:54:18,0.54,15.49,1.00,19.09,22.57,26.47,14.78,54.94,1011.83,2043.01,858.72,1078.13,1205.89,600.36,601.53,32.78,0000 0000 0000 0000 000000
2017-02-18 02:59:19,0.51,15.52,1.00,19.09,22.56,26.48,14.75,55.02,1011.76,2043.01,857.07,1076.78,1204.43,599.88,601.04,32.84,0000 0000 0000 0000 000000
2017-02-18 03:04:21,0.57,15.54,1.00,19.11,22.55,26.46,14.77,55.23,1011.72,2043.03,855.28,1075.48,1202.81,600.30,601.40,32.89,0000 0000 0000 0000 000000
2017-02-18 03:09:22,0.52,15.57,1.00,19.10,22.55,26.51,14.75,55.31,1011.73,2043.01,853.54,1074.07,1201.30,599.99,601.14,32.94,0000 0000 0000 0000 000000
2017-02-18 03:14:23,0.60,15.60,1.00,19.12,22.54,26.55,14.84,55.26,1011.73,2043.02,851.89,1072.66,1199.70,599.80,600.85,32.99,0000 0000 0000 0000 000000
2017-02-18 03:19:24,0.49,15.63,1.00,19.11,22.54,26.51,14.70,55.15,1011.73,2043.01,850.13,1071.28,1198.06,600.00,601.11,33.04,0000 0000 0000 0000 000000
2017-02-18 03:24:26,0.59,15.66,1.00,19.11,22.54,26.49,14.76,55.20,1011.73,2043.02,848.50,1069.84,1196.50,599.97,601.06,33.09,0000 0000 0000 0000 000000
2017-02-18 03:29:27,0.57,15.68,1.00,19.10,22.54,26.48,14.76,55.18,1011.73,2043.05,846.78,1068.54,1194.88,599.90,601.15,33.14,0000 0000 0000 0000 000000
2017-02-18 03:34:28,0.50,15.71,1.00,19.11,22.54,26.49,14.78,55.17,1011.73,2043.03,845.05,1067.16,1193.39,600.01,600.97,33.19,0000 0000 0000 0000 000000
2017-02-18 03:39:30,0.54,15.74,1.00,19.10,22.54,26.57,14.82,55.17,1011.73,2043.02,843.46,1065.83,1191.84,599.93,600.97,33.24,0000 0000 0000 0000 000000
2017-02-18 03:44:31,0.56,15.76,1.00,19.13,22.54,26.55,14.79,55.10,1011.74,2043.05,841.77,1064.54,1190.40,600.33,601.38,33.29,0000 0000 0000 0000 000000
2017-02-18 03:49:33,0.48,15.79,1.00,19.11,22.54,26.55,14.72,55.25,1011.74,2043.04,840.09,1063.26,1188.87,599.86,600.93,33.34,0000 0000 0000 0000 000000
2017-02-18 03:54:34,0.54,15.82,1.00,19.10,22.54,26.54,14.84,55.18,1011.75,2043.04,838.52,1061.93,1187.46,600.21,601.31,33.39,0000 0000 0000 0000 000000
2017-02-18 03:59:35,0.57,15.85,1.00,19.10,22.54,26.48,14.78,55.32,1011.73,2043.04,836.83,1060.61,1185.92,599.87,601.00,33.44,0000 0000 0000 0000 000000
2017-02-18 04:04:37,0.48,15.87,1.00,19.11,22.53,26.56,14.76,55.19,1011.75,2043.05,835.24,1059.36,1184.47,599.94,601.00,33.49,0000 0000 0000 0000 000000
2017-02-18 04:09:38,0.54,15.90,1.00,19.09,22.53,26.51,14.78,55.01,1011.81,2043.06,833.59,1058.09,1182.94,599.88,600.94,33.54,0000 0000 0000 0000 000000
2017-02-18 04:14:40,0.49,15.93,1.00,19.10,22.52,26.51,14.79,55.01,1012.04,2043.05,831.99,1056.83,1181.53,600.07,601.37,33.59,0000 0000 0000 0000 000000
2017-02-18 04:19:41,0.52,15.95,1.00,19.11,22.52,26.52,14.83,54.94,1012.22,2043.04,830.58,1055.56,1180.08,599.98,601.49,33.64,0000 0000 0000 0000 000000
2017-02-18 04:24:43,0.49,15.98,1.00,19.12,22.52,26.53,14.73,54.83,1012.22,2043.06,828.99,1054.35,1178.70,599.91,601.24,33.69,0000 0000 0000 0000 000000
2017-02-18 04:29:44,0.50,16.00,1.00,19.13,22.52,26.53,14.72,54.79,1012.22,2043.05,827.52,1053.15,1177.29,599.81,601.16,33.74,0000 0000 0000 0000 000000
2017-02-18 04:34:45,0.54,16.03,1.00,19.16,22.52,26.57,14.75,54.73,1012.09,2043.03,825.86,1051.92,1175.84,600.09,601.36,33.80,0000 0000 0000 0000 000000
2017-02-18 04:39:47,0.53,16.06,1.00,19.21,22.53,26.56,14.84,54.98,1011.93,2043.03,824.31,1050.64,1174.45,600.29,601.17,33.85,0000 0000 0000 0000 000000
2017-02-18 04:44:48,0.52,16.08,1.00,19.21,22.54,26.56,14.74,54.92,1011.78,2043.02,822.71,1049.43,1172.97,599.84,600.70,33.90,0000 0000 0000 0000 000000
2017-02-18 04:49:49,0.46,16.11,1.00,19.24,22.54,26.62,14.72,54.87,1011.80,2043.00,821.20,1048.22,1171.60,599.79,600.72,33.95,0000 0000 0000 0000 000000
2017-02-18 04:54:50,0.51,16.13,1.00,19.26,22.54,26.58,14.80,54.77,1011.77,2043.03,819.69,1047.03,1170.27,600.06,600.84,34.00,0000 0000 0000 0000 000000
2017-02-18 04:59:51,0.52,16.16,1.00,19.26,22.56,26.63,14.80,54.85,1011.81,2043.01,818.14,1045.81,1168.80,600.18,600.95,34.05,0000 0000 0000 0000 000000
2017-02-18 05:04:52,0.54,16.18,1.00,19.28,22.57,26.61,14.73,54.73,1011.91,2043.02,816.57,1044.60,1167.49,600.06,600.93,34.10,0000 0000 0000 0000 000000
2017-02-18 05:09:54,0.47,16.21,1.00,19.32,22.57,26.65,14.76,54.60,1012.02,2043.01,815.06,1043.43,1166.07,599.81,600.54,34.15,0000 0000 0000 0000 000000
2017-02-18 05:14:55,0.51,16.24,1.00,19.36,22.59,26.67,14.68,54.56,1012.00,2043.00,813.55,1042.29,1164.71,599.68,600.44,34.20,0000 0000 0000 0000 000000
2017-02-18 05:19:56,0.50,16.26,1.00,19.38,22.59,26.69,14.83,54.69,1012.20,2043.00,811.96,1041.03,1163.37,600.43,601.29,34.25,0000 0000 0000 0000 000000
2017-02-18 05:24:58,0.54,16.29,1.00,19.42,22.61,26.71,14.74,54.58,1012.22,2043.00,810.43,1039.78,1161.91,600.11,600.93,34.30,0000 0000 0000 0000 000000
2017-02-18 05:29:59,0.51,16.32,1.00,19.46,22.62,26.74,14.75,54.62,1012.20,2043.00,808.93,1038.61,1160.55,600.24,600.80,34.35,0000 0000 0000 0000 000000
2017-02-18 05:35:00,0.49,16.34,1.00,19.49,22.64,26.77,14.69,54.69,1011.92,2042.99,807.44,1037.44,1159.22,599.87,600.31,34.40,0000 0000 0000 0000 000000
2017-02-18 05:40:02,0.51,16.37,1.00,19.50,22.66,26.79,14.77,54.76,1011.95,2042.99,805.88,1036.26,1157.78,600.13,600.50,34.45,0000 0000 0000 0000 000000
2017-02-18 05:45:03,0.50,16.39,1.00,19.52,22.67,26.82,14.71,54.73,1011.85,2042.98,804.38,1035.02,1156.41,599.83,600.14,34.50,0000 0000 0000 0000 000000
2017-02-18 05:50:05,0.52,16.42,1.00,19.55,22.69,26.84,14.76,54.76,1012.14,2042.98,802.85,1033.80,1155.04,599.99,600.33,34.55,0000 0000 0000 0000 000000
2017-02-18 05:55:06,0.52,16.45,1.00,19.59,22.71,26.86,14.68,54.58,1012.18,2042.96,801.40,1032.61,1153.66,600.01,600.30,34.60,0000 0000 0000 0000 000000
2017-02-18 06:00:07,0.49,16.47,1.00,19.61,22.73,26.89,14.78,54.78,1012.22,2042.81,799.85,1031.44,1152.27,600.11,600.50,34.66,0000 0000 0000 0000 000000
2017-02-18 06:05:09,0.39,16.50,1.00,19.62,22.75,26.92,14.73,54.63,1012.22,2042.34,798.34,1030.22,1150.90,599.74,600.11,34.71,0000 0000 0000 0000 000000
2017-02-18 06:10:10,0.48,16.52,1.00,19.66,22.77,26.95,14.71,54.61,1012.22,2042.10,796.83,1029.04,1149.61,599.87,600.08,34.76,0000 0000 0000 0000 000000
2017-02-18 06:15:11,0.50,16.54,1.00,19.70,22.79,26.98,14.69,54.68,1012.23,2042.04,795.43,1027.85,1148.30,599.77,599.84,34.81,0000 0000 0000 0000 000000
2017-02-18 06:20:12,0.52,16.57,1.00,19.73,22.82,27.00,14.70,54.73,1012.22,2042.02,793.92,1026.70,1146.90,599.86,599.96,34.86,0000 0000 0000 0000 000000
2017-02-18 06:25:13,0.53,16.60,1.00,19.75,22.84,27.02,14.78,54.66,1012.25,2042.00,792.51,1025.52,1145.55,600.12,600.10,34.91,0000 0000 0000 0000 000000
2017-02-18 06:30:14,0.48,16.62,0.33,19.79,22.86,27.04,14.79,54.72,1012.35,2042.00,790.99,1024.35,1144.23,600.01,599.98,34.96,0000 0000 0000 0000 000000
2017-02-18 06:35:16,0.53,16.65,0.00,19.83,22.89,27.08,14.69,54.80,1012.50,2042.00,789.54,1023.20,1142.83,599.83,599.82,35.01,0000 0000 0000 0000 000000
2017-02-18 06:40:17,0.47,16.67,0.00,19.86,22.91,27.10,14.70,54.70,1012.31,2041.99,788.03,1022.14,1141.50,599.94,599.84,35.06,0000 0000 0000 0000 000000
2017-02-18 06:45:18,0.52,16.70,0.00,19.90,22.93,27.12,14.76,54.70,1012.27,2041.97,786.58,1020.92,1140.16,599.99,599.80,35.11,0000 0000 0000 0000 000000
2017-02-18 06:50:19,0.47,16.72,0.00,19.92,22.96,27.15,14.70,54.63,1012.33,2041.91,785.15,1019.80,1138.76,599.86,599.58,35.16,0000 0000 0000 0000 000000
2017-02-18 06:55:20,0.49,16.75,0.00,19.94,22.99,27.17,14.71,54.74,1012.38,2041.44,783.68,1018.60,1137.46,600.15,599.85,35.21,0000 0000 0000 0000 000000
2017-02-18 07:00:22,0.41,16.77,0.00,19.98,23.01,27.19,14.78,54.81,1012.55,2041.12,782.18,1017.40,1136.03,600.05,599.78,35.26,0000 0000 0000 0000 000000
2017-02-18 07:05:23,0.58,16.79,0.00,20.02,23.04,27.22,14.77,54.77,1012.45,2041.04,780.65,1016.17,1134.62,599.97,599.69,35.31,0000 0000 0000 0000 000000
2017-02-18 07:10:24,0.47,16.82,0.00,20.06,23.06,27.24,14.75,54.74,1012.66,2041.01,779.21,1014.93,1133.28,599.80,599.43,35.36,0000 0000 0000 0000 000000
2017-02-18 07:15:26,0.58,16.85,0.00,20.08,23.09,27.28,14.75,54.65,1012.71,2041.00,777.70,1013.74,1131.90,600.12,599.80,35.41,0000 0000 0000 0000 000000
2017-02-18 07:20:27,0.50,16.88,0.00,20.13,23.12,27.30,14.71,54.75,1012.71,2041.00,776.27,1012.56,1130.57,599.76,599.15,35.46,0000 0000 0000 0000 000000
2017-02-18 07:25:28,0.52,16.90,0.00,20.16,23.15,27.36,14.76,54.62,1012.71,2040.99,774.78,1011.43,1129.22,599.97,599.51,35.51,0000 0000 0000 0000 000000
2017-02-18 07:30:29,0.49,16.93,0.70,20.20,23.18,27.36,14.67,54.73,1012.71,2040.96,773.34,1010.26,1127.83,599.84,599.32,35.56,0000 0000 0000 0000 000000
2017-02-18 07:35:31,0.51,16.95,1.00,20.22,23.21,27.41,14.68,54.65,1012.71,2040.78,771.83,1009.03,1126.47,599.99,599.33,35.62,0000 0000 0000 0000 000000
2017-02-18 07:40:32,0.39,16.97,1.00,20.25,23.24,27.46,14.78,54.73,1012.72,2040.19,770.40,1007.86,1125.08,599.91,599.26,35.67,0000 0000 0000 0000 000000
2017-02-18 07:45:33,0.59,17.00,1.00,20.28,23.28,27.47,14.70,54.70,1012.71,2040.04,768.85,1006.61,1123.67,599.87,599.08,35.72,0000 0000 0000 0000 000000
2017-02-18 07:50:35,0.50,17.03,1.00,20.32,23.31,27.49,14.70,54.75,1012.71,2040.01,767.53,1005.44,1122.37,599.88,599.01,35.77,0000 0000 0000 0000 000000
2017-02-18 07:55:36,0.48,17.05,1.00,20.35,23.34,27.54,14.74,54.89,1012.71,2040.00,766.09,1004.28,1120.99,600.13,599.27,35.82,0000 0000 0000 0000 000000
2017-02-18 08:00:37,0.58,17.08,1.00,20.38,23.37,27.57,14.78,54.89,1012.73,2040.00,764.64,1003.04,1119.66,600.13,599.10,35.87,0000 0000 0000 0000 000000
2017-02-18 08:05:39,0.51,17.11,1.00,20.41,23.40,27.61,14.72,54.87,1012.88,2039.99,763.22,1001.79,1118.24,600.40,599.53,35.92,0000 0000 0000 0000 000000
2017-02-18 08:10:40,0.58,17.14,1.00,20.42,23.43,27.64,14.68,54.90,1012.75,2039.98,761.74,1000.61,1116.81,599.98,598.84,35.97,0000 0000 0000 0000 000000
2017-02-18 08:15:41,0.49,17.16,1.00,20.47,23.46,27.68,14.75,54.67,1012.77,2039.93,760.38,999.44,1115.50,600.17,599.04,36.02,0000 0000 0000 0000 000000
2017-02-18 08:20:43,0.46,17.19,1.00,20.49,23.50,27.70,14.71,54.77,1012.96,2039.72,758.91,998.26,1114.16,599.70,598.62,36.07,0000 0000 0000 0000 000000
2017-02-18 08:25:44,0.48,17.21,1.00,20.50,23.53,27.73,14.74,54.66,1012.95,2039.35,757.53,997.06,1112.76,600.21,599.15,36.12,0000 0000 0000 0000 000000
2017-02-18 08:30:45,0.48,17.23,1.00,20.53,23.56,27.77,14.72,54.77,1012.98,2039.04,756.07,995.89,1111.44,599.99,598.91,36.17,0000 0000 0000 0000 000000
2017-02-18 08:35:46,0.59,17.26,1.00,20.57,23.59,27.80,14.69,54.82,1012.96,2039.00,754.58,994.66,1109.97,599.89,598.67,36.22,0000 0000 0000 0000 000000
2017-02-18 08:40:48,0.53,17.29,1.00,20.58,23.63,27.82,14.66,54.83,1012.98,2039.00,753.08,993.48,1108.63,599.79,598.59,36.27,0000 0000 0000 0000 000000
2017-02-18 08:45:49,0.52,17.32,1.00,20.58,23.66,27.85,14.72,54.88,1013.16,2038.99,751.69,992.35,1107.30,599.79,598.76,36.32,0000 0000 0000 0000 000000
2017-02-18 08:50:50,0.54,17.34,1.00,20.62,23.69,27.88,14.75,55.03,1013.17,2038.94,750.17,991.08,1105.82,600.03,598.84,36.37,0000 0000 0000 0000 000000
2017-02-18 08:55:52,0.53,17.37,1.00,20.65,23.71,27.92,14.71,54.99,1013.20,2038.77,748.71,989.82,1104.49,599.92,598.69,36.42,0000 0000 0000 0000 000000
2017-02-18 09:00:53,0.42,17.40,1.00,20.65,23.74,27.94,14.66,54.88,1013.20,2038.20,747.30,988.65,1103.12,599.82,598.62,36.48,0000 0000 0000 0000 000000
2017-02-18 09:05:54,0.54,17.42,1.00,20.68,23.77,27.97,14.67,54.93,1013.16,2038.04,745.81,987.51,1101.78,600.12,598.82,36.53,0000 0000 0000 0000 000000
2017-02-18 09:10:56,0.53,17.45,1.00,20.71,23.80,28.00,14.76,55.11,1013.15,2038.02,744.46,986.40,1100.52,600.01,598.64,36.58,0000 0000 0000 0000 000000
2017-02-18 09:15:57,0.52,17.47,1.00,20.72,23.83,28.02,14.71,54.96,1013.08,2038.00,742.96,985.20,1099.14,600.11,598.72,36.63,0000 0000 0000 0000 000000
2017-02-18 09:20:58,0.56,17.50,1.00,20.74,23.86,28.04,14.67,54.98,1013.01,2038.00,741.55,984.00,1097.74,600.06,598.53,36.68,0000 0000 0000 0000 000000
2017-02-18 09:26:00,0.50,17.53,1.00,20.74,23.88,28.07,14.74,55.08,1012.97,2037.99,740.16,982.83,1096.48,599.77,598.33,36.73,0000 0000 0000 0000 000000
2017-02-18 09:31:02,0.57,17.56,1.00,20.75,23.91,28.09,14.65,55.07,1012.95,2037.99,738.75,981.67,1095.18,600.01,598.44,36.78,0000 0000 0000 0000 000000
2017-02-18 09:36:03,0.53,17.59,1.00,20.77,23.93,28.13,14.75,55.11,1013.16,2037.94,737.35,980.51,1093.78,599.96,598.36,36.83,0000 0000 0000 0000 000000
2017-02-18 09:41:04,0.48,17.61,1.00,20.78,23.96,28.14,14.74,55.11,1012.99,2037.76,735.94,979.40,1092.51,600.00,598.41,36.88,0000 0000 0000 0000 000000
2017-02-18 09:46:06,0.52,17.64,1.00,20.78,23.98,28.16,14.79,55.17,1013.19,2037.61,734.52,978.28,1091.25,600.28,598.75,36.93,0000 0000 0000 0000 000000
2017-02-18 09:51:07,0.38,17.66,1.00,20.83,24.01,28.19,14.69,55.15,1013.18,2037.15,733.15,977.16,1089.94,600.05,598.41,36.98,0000 0000 0000 0000 000000
2017-02-18 09:56:09,0.56,17.69,1.00,20.85,24.02,28.18,14.67,55.19,1013.19,2037.03,731.76,976.06,1088.66,599.93,598.20,37.03,0000 0000 0000 0000 000000
2017-02-18 10:01:10,0.52,17.71,1.00,20.85,24.05,28.22,14.81,55.32,1013.16,2037.02,730.43,974.94,1087.41,600.19,598.52,37.08,0000 0000 0000 0000 000000
2017-02-18 10:06:11,0.51,17.74,1.00,20.87,24.07,28.24,14.77,55.43,1012.93,2037.00,729.01,973.80,1086.30,600.00,598.12,37.13,0000 0000 0000 0000 000000
2017-02-18 10:11:12,0.57,17.76,1.00,20.87,24.09,28.26,14.72,55.36,1013.05,2037.00,727.62,972.68,1084.98,600.23,598.52,37.18,0000 0000 0000 0000 000000
2017-02-18 10:16:14,0.51,17.79,1.00,20.89,24.11,28.27,14.74,55.38,1012.88,2037.00,726.27,971.60,1083.69,600.10,598.20,37.23,0000 0000 0000 0000 000000
2017-02-18 10:21:15,0.53,17.82,1.00,20.92,24.12,28.30,14.75,55.27,1012.94,2036.99,724.90,970.49,1082.45,600.32,598.31,37.29,0000 0000 0000 0000 000000
2017-02-18 10:26:16,0.53,17.85,1.00,20.93,24.15,28.31,14.66,55.28,1012.89,2036.98,723.54,969.36,1081.16,600.09,597.94,37.34,0000 0000 0000 0000 000000
2017-02-18 10:31:18,0.47,17.87,1.00,20.93,24.17,28.33,14.69,55.30,1012.89,2036.95,722.21,968.29,1079.89,600.06,598.05,37.39,0000 0000 0000 0000 000000
2017-02-18 10:36:19,0.54,17.90,1.00,20.93,24.18,28.36,14.66,55.29,1012.77,2036.84,720.80,967.18,1078.65,599.70,597.74,37.44,0000 0000 0000 0000 000000
2017-02-18 10:41:20,0.46,17.92,1.00,20.92,24.20,28.35,14.72,55.30,1012.77,2036.65,719.53,966.06,1077.44,600.15,598.13,37.49,0000 0000 0000 0000 000000
2017-02-18 10:46:22,0.46,17.95,1.00,20.92,24.22,28.36,14.69,55.42,1012.76,2036.56,718.15,965.02,1076.16,600.19,598.16,37.54,0000 0000 0000 0000 000000
2017-02-18 10:51:23,0.50,17.97,1.00,20.95,24.23,28.37,14.66,55.37,1012.82,2036.18,716.75,963.93,1074.89,600.12,598.06,37.59,0000 0000 0000 0000 000000
2017-02-18 10:56:25,0.52,18.00,1.00,20.96,24.25,28.36,14.71,55.34,1012.78,2036.04,715.48,962.85,1073.67,600.04,597.96,37.64,0000 0000 0000 0000 000000
2017-02-18 11:01:26,0.48,18.02,1.00,20.95,24.26,28.38,14.76,55.43,1012.74,2036.04,714.17,961.81,1072.49,600.15,598.05,37.69,0000 0000 0000 0000 000000
2017-02-18 11:06:27,0.56,18.05,1.00,20.96,24.27,28.37,14.64,55.31,1012.74,2036.02,712.79,960.72,1071.26,599.87,597.63,37.74,0000 0000 0000 0000 000000
2017-02-18 11:11:28,0.54,18.08,1.00,20.97,24.29,28.35,14.64,55.59,1012.71,2036.00,711.40,959.69,1069.93,599.72,597.59,37.79,0000 0000 0000 0000 000000
2017-02-18 11:16:30,0.51,18.10,1.00,20.99,24.30,28.37,14.69,55.53,1012.72,2036.00,710.03,958.66,1068.68,600.23,598.06,37.84,0000 0000 0000 0000 000000
2017-02-18 11:21:31,0.54,18.13,1.00,20.95,24.31,28.37,14.72,55.47,1012.72,2036.00,708.75,957.64,1067.51,599.96,597.89,37.89,0000 0000 0000 0000 000000
2017-02-18 11:26:32,0.52,18.16,1.00,20.94,24.32,28.37,14.72,55.56,1012.74,2035.99,707.48,956.56,1066.25,600.15,598.06,37.94,0000 0000 0000 0000 000000
2017-02-18 11:31:34,0.48,18.18,1.00,20.94,24.32,28.38,14.70,55.54,1012.78,2035.99,706.10,955.53,1065.03,600.22,598.14,37.99,0000 0000 0000 0000 000000
2017-02-18 11:36:35,0.56,18.21,1.00,20.94,24.34,28.34,14.73,55.45,1012.84,2035.98,704.79,954.44,1063.81,600.04,597.97,38.04,0000 0000 0000 0000 000000
2017-02-18 11:41:37,0.53,18.24,1.00,20.91,24.35,28.37,14.73,55.99,1012.83,2035.99,703.53,953.45,1062.66,600.41,598.34,38.09,0000 0000 0000 0000 000000
2017-02-18 11:46:38,0.47,18.26,1.00,20.91,24.35,28.37,14.65,55.83,1012.92,2035.99,702.39,952.34,1061.45,599.77,597.94,38.14,0000 0000 0000 0000 000000
2017-02-18 11:51:39,0.51,18.29,1.00,20.92,24.35,28.32,14.75,55.51,1013.06,2035.97,701.04,951.36,1060.25,600.16,598.16,38.19,0000 0000 0000 0000 000000
2017-02-18 11:56:40,0.54,18.31,1.00,20.92,24.35,28.34,14.70,55.44,1013.16,2035.98,699.74,950.30,1058.99,599.84,598.20,38.25,0000 0000 0000 0000 000000
2017-02-18 12:01:42,0.57,14.06,1.00,20.93,24.38,28.41,12.91,46.96,1013.17,2037.84,1456.03,1529.87,1730.55,534.05,529.58,0.01,0000 0000 0000 0000 000002
2017-02-18 12:06:43,0.69,0.00,1.00,20.93,24.38,28.46,14.65,49.50,1013.05,2042.99,3527.25,3119.57,3573.58,600.42,598.54,0.02,0000 0000 0000 0000 000000
2017-02-18 12:11:44,0.70,0.02,1.00,20.94,24.37,28.43,14.65,49.12,1013.18,2042.90,3514.13,3110.48,3563.18,600.24,598.32,0.07,0000 0000 0000 0000 000000
2017-02-18 12:16:45,0.68,0.05,1.00,20.96,24.37,28.35,14.59,48.95,1013.07,2042.87,3501.96,3101.62,3552.95,599.65,597.74,0.12,0000 0000 0000 0000 000000
2017-02-18 12:21:47,0.66,0.08,1.00,20.97,24.37,28.31,14.61,49.00,1013.03,2042.66,3489.77,3092.80,3542.73,600.05,598.08,0.17,0000 0000 0000 0000 000000
2017-02-18 12:26:48,0.61,0.11,1.00,20.98,24.37,28.35,14.61,48.75,1013.05,2042.36,3477.80,3084.01,3532.55,600.42,598.45,0.22,0000 0000 0000 0000 000000
2017-02-18 12:31:49,0.57,0.13,1.00,20.99,24.38,28.35,14.63,48.55,1012.82,2042.21,3466.07,3075.38,3522.61,600.10,597.88,0.27,0000 0000 0000 0000 000000
2017-02-18 12:36:50,0.53,0.16,1.00,20.99,24.39,28.39,14.58,48.63,1012.73,2042.07,3454.67,3067.15,3513.09,599.79,597.64,0.32,0000 0000 0000 0000 000000
2017-02-18 12:41:52,0.53,0.19,1.00,20.97,24.40,28.42,14.62,48.77,1012.74,2042.06,3443.31,3058.87,3503.54,599.84,597.69,0.37,0000 0000 0000 0000 000000
2017-02-18 12:46:53,0.53,0.21,1.00,20.99,24.40,28.40,14.53,48.63,1012.85,2042.01,3431.96,3050.59,3493.91,599.70,597.58,0.42,0000 0000 0000 0000 000000
2017-02-18 12:51:55,0.53,0.24,1.00,21.01,24.40,28.40,14.59,48.54,1012.81,2042.03,3420.84,3042.46,3484.51,600.02,597.70,0.47,0000 0000 0000 0000 000000
2017-02-18 12:56:56,0.53,0.27,1.00,21.00,24.40,28.41,14.60,48.71,1012.88,2042.01,3409.71,3034.23,3475.10,599.99,597.83,0.52,0000 0000 0000 0000 000000